FW6250 Weather Reports


time (UTC)temp
C
wind
direction
speed
KPH
gust
KPH
rain 1hr
cm
rain 24hr
cm
rain mn
cm
humidity
%
barometer
mb
20260506202528 13 0 3.2 6.4 0.00 0.36 0.36 90 1005.3
20260506202029 13 259 3.2 6.4 0.00 0.36 0.36 90 1005.5
20260506201548 13 274 1.6 6.4 0.00 0.36 0.36 91 1005.6
20260506201033 13 259 0.0 4.8 0.00 0.36 0.36 90 1005.7
20260506200533 13 322 1.6 8.0 0.00 0.36 0.36 91 1005.5
20260506200042 13 286 3.2 8.0 0.00 0.36 0.36 90 1005.7
20260506195531 14 284 1.6 6.4 0.00 0.36 0.36 90 1005.6
20260506195029 14 248 1.6 6.4 0.00 0.36 0.36 90 1005.7
20260506194543 14 265 1.6 4.8 0.00 0.36 0.36 91 1005.8
20260506194029 14 292 1.6 4.8 0.03 0.36 0.36 92 1005.9
20260506193528 14 240 1.6 4.8 0.03 0.36 0.36 92 1005.8
20260506193051 14 281 0.0 8.0 0.03 0.36 0.36 92 1005.9
20260506192530 14 263 3.2 8.0 0.05 0.36 0.36 92 1006.0
20260506192027 14 259 1.6 3.2 0.05 0.36 0.36 93 1005.9
20260506191543 14 249 1.6 3.2 0.08 0.36 0.36 94 1006.1
20260506191028 14 300 0.0 3.2 0.08 0.36 0.36 94 1006.2
20260506190533 14 254 1.6 3.2 0.10 0.36 0.36 94 1006.2
20260506190043 13 252 0.0 3.2 0.13 0.36 0.36 94 1006.1
20260506185531 13 252 1.6 3.2 0.13 0.36 0.36 94 1005.9
20260506185030 13 252 0.0 1.6 0.15 0.36 0.36 95 1006.0
20260506184543 13 0 0.0 3.2 0.18 0.36 0.36 95 1006.1
20260506184028 13 315 0.0 3.2 0.18 0.33 0.33 94 1006.2
20260506183532 13 0 0.0 3.2 0.20 0.33 0.33 94 1006.1
20260506183046 13 0 0.0 3.2 0.20 0.33 0.33 94 1006.1
20260506182528 13 304 0.0 3.2 0.20 0.30 0.30 94 1006.2
20260506182029 13 292 0.0 3.2 0.23 0.30 0.30 94 1006.2
20260506181554 13 0 0.0 3.2 0.23 0.28 0.28 94 1006.4
20260506181032 13 292 0.0 3.2 0.23 0.28 0.28 94 1006.4
20260506180529 13 0 0.0 3.2 0.20 0.25 0.25 94 1006.5
20260506180048 13 283 1.6 3.2 0.20 0.23 0.23 93 1006.6
20260506175530 13 283 0.0 3.2 0.20 0.23 0.23 93 1006.5
20260506175028 13 284 0.0 3.2 0.20 0.20 0.20 93 1006.6
20260506174542 13 310 1.6 3.2 0.18 0.18 0.18 93 1006.5
20260506174028 13 0 0.0 3.2 0.15 0.15 0.15 93 1006.6
20260506173529 13 304 0.0 6.4 0.13 0.13 0.13 93 1006.5
20260506173105 13 290 1.6 6.4 0.13 0.13 0.13 92 1006.5
20260506172529 13 318 3.2 6.4 0.10 0.10 0.10 92 1006.6
20260506172031 13 0 1.6 6.4 0.08 0.08 0.08 92 1006.5
20260506171546 13 298 1.6 4.8 0.05 0.05 0.05 92 1006.6
20260506171029 13 269 1.6 4.8 0.05 0.05 0.05 93 1006.6
20260506170529 13 229 0.0 8.0 0.05 0.05 0.05 93 1006.5
20260506170055 13 310 1.6 8.0 0.03 0.03 0.03 93 1006.5
20260506165528 13 256 3.2 0.0 0.00 0.00 0.00 92 1006.5
20260506165029 -17 0.0 0.0 0.00 0.00 0.00 1006.4
20260506164544 -17 0.0 0.0 0.00 0.00 0.00 1006.5
20260506164030 -17 0.0 0.0 0.00 0.00 0.00 1006.7
20260506163530 -17 0.0 0.0 0.00 0.00 0.00 1006.7
20260506163042 -17 0.0 0.0 0.00 0.00 0.00 1006.8
20260506162534 -17 0.0 0.0 0.00 0.00 0.00 1006.7
20260506162033 -17 0.0 0.0 0.00 0.00 0.00 1006.9
20260506161543 -17 0.0 0.0 0.00 0.00 0.00 1007.1
20260506161031 -17 0.0 0.0 0.00 0.00 0.00 1007.0
20260506160533 -17 0.0 0.0 0.00 0.00 0.00 1007.2
20260506160052 -17 0.0 0.0 0.00 0.00 0.00 1007.2
20260506155529 -17 0.0 0.0 0.00 0.00 0.00 1007.4
20260506155032 -17 0.0 0.0 0.00 0.00 0.00 1007.4
20260506154544 -17 0.0 0.0 0.00 0.00 0.00 1007.3
20260506154028 -17 0.0 0.0 0.00 0.00 0.00 1007.3
20260506153531 -17 0.0 0.0 0.00 0.00 0.00 1007.5
20260506153043 -17 0.0 0.0 0.00 0.00 0.00 1007.6
20260506152531 -17 0.0 0.0 0.00 0.00 0.00 1007.8
20260506152028 -17 0.0 0.0 0.00 0.00 0.00 1007.7
20260506151545 -17 0.0 0.0 0.00 0.00 0.00 1007.9
20260506151031 -17 0.0 0.0 0.00 0.00 0.00 1007.9
20260506150529 -17 0.0 0.0 0.00 0.00 0.00 1008.0
20260506150049 -17 0.0 0.0 0.00 0.00 0.00 1007.9
20260506145531 -17 0.0 0.0 0.00 0.00 0.00 1008.1
20260506145032 -17 0.0 0.0 0.00 0.00 0.00 1008.0
20260506144545 -17 0.0 0.0 0.00 0.00 0.00 1008.1
20260506144031 -17 0.0 0.0 0.00 0.00 0.00 1008.1
20260506143528 -17 0.0 0.0 0.00 0.00 0.00 1008.1
20260506143039 -17 0.0 0.0 0.00 0.00 0.00 1008.4
20260506142528 -17 0.0 0.0 0.00 0.00 0.00 1008.4
20260506142027 -17 0.0 0.0 0.00 0.00 0.00 1008.6
20260506141547 -17 0.0 0.0 0.00 0.00 0.00 1008.6
20260506141032 -17 0.0 0.0 0.00 0.00 0.00 1008.5
20260506140528 -17 0.0 0.0 0.00 0.00 0.00 1008.5
20260506140043 -17 0.0 0.0 0.00 0.00 0.00 1008.5
20260506135530 -17 0.0 0.0 0.00 0.00 0.00 1008.5
20260506135029 -17 0.0 0.0 0.00 0.00 0.00 1008.6
20260506134547 -17 0.0 0.0 0.00 0.00 0.00 1008.6
20260506134029 -17 0.0 0.0 0.00 0.00 0.00 1008.5
20260506133534 -17 0.0 0.0 0.00 0.00 0.00 1008.6
20260506133040 -17 0.0 0.0 0.00 0.00 0.00 1008.3
20260506132528 -17 0.0 0.0 0.00 0.00 0.00 1008.2
20260506132035 -17 0.0 0.0 0.00 0.00 0.00 1008.1
20260506131547 -17 0.0 0.0 0.00 0.00 0.00 1008.2
20260506131030 -17 0.0 0.0 0.00 0.00 0.00 1008.2
20260506130532 -17 0.0 0.0 0.00 0.00 0.00 1008.2
20260506130052 -17 0.0 0.0 0.00 0.00 0.00 1008.4
20260506125530 -17 0.0 0.0 0.00 0.00 0.00 1008.1
20260506125031 -17 0.0 0.0 0.00 0.00 0.00 1008.1
20260506124538 -17 0.0 0.0 0.00 0.00 0.00 1008.2
20260506124031 -17 0.0 0.0 0.00 0.00 0.00 1008.3
20260506123531 -17 0.0 0.0 0.00 0.00 0.00 1008.2
20260506123043 -17 0.0 0.0 0.00 0.00 0.00 1008.0
20260506122531 -17 0.0 0.0 0.00 0.00 0.00 1008.2
20260506122031 -17 0.0 0.0 0.00 0.00 0.00 1008.3
20260506121543 -17 0.0 0.0 0.00 0.00 0.00 1008.5
20260506121028 -17 0.0 0.0 0.00 0.00 0.00 1008.6
20260506120532 -17 0.0 0.0 0.00 0.00 0.00 1008.8
20260506120040 -17 0.0 0.0 0.00 0.00 0.00 1008.7
20260506115534 -17 0.0 0.0 0.00 0.00 0.00 1009.0
20260506115028 -17 0.0 0.0 0.00 0.00 0.00 1009.0
20260506114539 -17 0.0 0.0 0.00 0.00 0.00 1009.1
20260506114031 -17 0.0 0.0 0.00 0.00 0.00 1008.9
20260506113527 -17 0.0 0.0 0.00 0.00 0.00 1008.8
20260506113036 -17 0.0 0.0 0.00 0.00 0.00 1008.6
20260506112529 -17 0.0 0.0 0.00 0.00 0.00 1008.6
20260506112028 -17 0.0 0.0 0.00 0.00 0.00 1008.6
20260506111538 -17 0.0 0.0 0.00 0.00 0.00 1008.6
20260506111030 -17 0.0 0.0 0.00 0.00 0.00 1008.4
20260506110532 -17 0.0 0.0 0.00 0.00 0.00 1008.1
20260506110042 -17 0.0 0.0 0.00 0.00 0.00 1007.9
20260506105531 -17 0.0 0.0 0.00 0.00 0.00 1008.1
20260506105033 -17 0.0 0.0 0.00 0.00 0.00 1008.4
20260506104536 -17 0.0 0.0 0.00 0.00 0.00 1008.2
20260506104030 -17 0.0 0.0 0.00 0.00 0.00 1008.3
20260506103528 -17 0.0 0.0 0.00 0.00 0.00 1008.1
20260506103041 -17 0.0 0.0 0.00 0.00 0.00 1008.1
20260506102531 -17 0.0 0.0 0.00 0.00 0.00 1008.0
20260506102028 -17 0.0 0.0 0.00 0.00 0.00 1008.0
20260506101539 -17 0.0 0.0 0.00 0.00 0.00 1008.2
20260506101028 -17 0.0 0.0 0.00 0.00 0.00 1007.9
20260506100529 -17 0.0 0.0 0.00 0.00 0.00 1008.1
20260506100042 -17 0.0 0.0 0.00 0.00 0.00 1007.9
20260506095530 -17 0.0 0.0 0.00 0.00 0.00 1008.2
20260506095027 -17 0.0 0.0 0.00 0.00 0.00 1008.3
20260506094554 -17 0.0 0.0 0.00 0.00 0.00 1008.1
20260506094031 -17 0.0 0.0 0.00 0.00 0.00 1008.0
20260506093531 -17 0.0 0.0 0.00 0.00 0.00 1008.0
20260506093041 -17 0.0 0.0 0.00 0.00 0.00 1008.0
20260506092528 -17 0.0 0.0 0.00 0.00 0.00 1008.2
20260506092029 -17 0.0 0.0 0.00 0.00 0.00 1008.1
20260506091537 -17 0.0 0.0 0.00 0.00 0.00 1007.9
20260506091030 -17 0.0 0.0 0.00 0.00 0.00 1008.0
20260506090527 -17 0.0 0.0 0.00 0.00 0.00 1008.0
20260506090039 -17 0.0 0.0 0.00 0.00 0.00 1008.1
20260506085532 -17 0.0 0.0 0.00 0.00 0.00 1008.1
20260506085032 -17 0.0 0.0 0.00 0.00 0.00 1008.3
20260506084545 -17 0.0 0.0 0.00 0.00 0.00 1008.2
20260506084033 -17 0.0 0.0 0.00 0.00 0.00 1008.3
20260506083532 -17 0.0 0.0 0.00 0.00 0.00 1008.1
20260506083042 -17 0.0 0.0 0.00 0.00 0.00 1008.3
20260506082535 -17 0.0 0.0 0.00 0.00 0.00 1008.5
20260506082035 -17 0.0 0.0 0.00 0.00 0.00 1008.4
20260506081540 -17 0.0 0.0 0.00 0.00 0.00 1008.4
20260506081034 -17 0.0 0.0 0.00 0.00 0.00 1008.3
20260506080533 -17 0.0 0.0 0.00 0.00 0.00 1008.5
20260506073043 -17 0.0 0.0 0.00 0.00 0.00 1008.8
20260506072536 -17 0.0 0.0 0.00 0.00 0.00 1008.8
20260506072032 -17 1.6 0.0 0.00 0.00 0.00 1008.8
20260506071545 -17 0.0 3.2 0.00 0.00 0.00 1008.8
20260506071031 -17 80 0.0 3.2 0.00 0.00 0.00 1008.8
20260506070531 11 0 0.0 3.2 0.00 0.00 0.00 89 1008.8
20260506062033 12 83 0.0 3.2 0.00 0.00 0.00 90 1009.3
20260506061545 12 0 0.0 3.2 0.00 0.00 0.00 90 1009.2
20260506061033 12 0 0.0 3.2 0.00 0.00 0.00 90 1009.3
20260506060534 12 0 0.0 3.2 0.00 0.00 0.00 90 1009.4
20260506051034 12 0 0.0 3.2 0.00 0.00 0.00 86 1009.7
20260506050532 12 0 0.0 3.2 0.00 0.00 0.00 86 1009.7
20260506045032 12 0 0.0 3.2 0.00 0.00 0.00 85 1009.6
20260506044547 12 0 0.0 3.2 0.00 0.00 0.00 85 1009.8
20260506044032 12 0 0.0 1.6 0.00 0.00 0.00 84 1009.9
20260506043532 12 0 0.0 0.0 0.00 0.00 0.00 84 1009.7
20260506043043 12 0 0.0 1.6 0.00 0.00 0.00 83 1009.7
20260506042532 13 0 0.0 3.2 0.00 0.00 0.00 82 1009.9
20260506042031 13 0 0.0 3.2 0.00 0.00 0.00 82 1009.7
20260506041549 13 0 0.0 3.2 0.00 0.00 0.00 81 1009.9
20260506041032 13 0 0.0 1.6 0.00 0.00 0.00 81 1009.8
20260506040532 13 0 0.0 1.6 0.00 0.00 0.00 80 1009.7
20260506040049 13 0 0.0 3.2 0.00 0.00 0.00 81 1009.8
20260506035534 13 62 0.0 3.2 0.00 0.00 0.00 82 1009.7
20260506035032 13 66 0.0 3.2 0.00 0.00 0.00 83 1009.6
20260506034543 13 0 0.0 3.2 0.00 0.00 0.00 83 1009.6
20260506034032 13 0 0.0 3.2 0.00 0.00 0.00 83 1009.6
20260506033533 13 0 0.0 3.2 0.00 0.00 0.00 84 1009.5
20260506033042 13 0 0.0 3.2 0.00 0.00 0.00 85 1009.4
20260506032532 13 16 0.0 1.6 0.00 0.00 0.00 86 1009.4
20260506032036 13 0 0.0 1.6 0.00 0.00 0.00 87 1009.4
20260506031537 13 62 0.0 3.2 0.00 0.00 0.00 86 1009.5
20260506031035 13 0 0.0 3.2 0.00 0.00 0.00 86 1009.5
20260506030532 13 62 0.0 1.6 0.00 0.00 0.00 86 1009.4
20260506030044 13 0 0.0 3.2 0.00 0.00 0.00 86 1009.5
20260506025627 14 62 0.0 3.2 0.00 0.00 0.00 85 1009.5
20260506025033 14 62 0.0 3.2 0.00 0.00 0.00 84 1009.6
20260506024558 14 0 0.0 3.2 0.00 0.00 0.00 83 1009.8
20260506024032 14 0 0.0 3.2 0.00 0.00 0.00 82 1009.6
20260506023532 15 62 0.0 3.2 0.00 0.00 0.00 81 1009.7
20260506023044 15 0 0.0 3.2 0.00 0.00 0.00 80 1009.7
20260506022532 15 0 0.0 3.2 0.00 0.00 0.00 78 1009.8
20260506022032 15 56 0.0 3.2 0.00 0.00 0.00 76 1010.0
20260506021541 15 0 0.0 3.2 0.00 0.00 0.00 72 1010.0
20260506021031 15 0 0.0 3.2 0.00 0.00 0.00 71 1009.9
20260506020531 15 41 1.6 3.2 0.00 0.00 0.00 71 1009.7
20260506020045 15 41 0.0 3.2 0.00 0.00 0.00 73 1009.6
20260506015534 15 0 0.0 3.2 0.00 0.00 0.00 72 1009.5
20260506015032 15 0 0.0 3.2 0.00 0.00 0.00 72 1009.6
20260506014544 15 0 0.0 3.2 0.00 0.00 0.00 73 1009.6
20260506014034 15 41 0.0 3.2 0.00 0.00 0.00 72 1009.7
20260506013533 15 0 0.0 3.2 0.00 0.00 0.00 74 1009.7
20260506013043 15 59 0.0 3.2 0.00 0.00 0.00 79 1009.7
20260506012532 15 0 0.0 4.8 0.00 0.00 0.00 80 1009.7
20260506012037 15 0 0.0 4.8 0.00 0.00 0.00 80 1009.8
20260506011544 15 53 0.0 3.2 0.00 0.00 0.00 79 1009.7
20260506011032 15 0 0.0 3.2 0.00 0.00 0.00 78 1009.6
20260506010532 15 0 0.0 3.2 0.00 0.00 0.00 77 1009.6
20260506010048 15 0 0.0 3.2 0.00 0.00 0.00 77 1009.7
20260506005533 15 360 0.0 3.2 0.00 0.00 0.00 75 1009.4
20260506005031 16 0 0.0 3.2 0.00 0.00 0.00 73 1009.5
20260506004543 16 360 0.0 3.2 0.00 0.00 0.00 71 1009.4
20260506004032 16 360 0.0 3.2 0.00 0.00 0.00 68 1009.3
20260506003532 17 360 0.0 3.2 0.00 0.00 0.00 65 1009.4
20260506003042 16 0 0.0 3.2 0.00 0.00 0.00 62 1009.3
20260506002534 16 0 0.0 3.2 0.00 0.00 0.00 62 1009.3
20260506002032 16 0 0.0 3.2 0.00 0.00 0.00 61 1009.2
20260506001542 16 0 1.6 3.2 0.00 0.00 0.00 62 1009.0
20260506001032 16 0 0.0 3.2 0.00 0.00 0.00 63 1008.9
20260506000532 16 302 0.0 3.2 0.00 0.00 0.00 64 1008.9
20260506000048 16 0 0.0 3.2 0.00 0.00 0.00 64 1008.8
20260505235532 16 0 0.0 3.2 0.00 0.00 0.00 67 1008.8
20260505235033 16 326 0.0 1.6 0.00 0.00 0.00 65 1008.8
20260505234544 16 0 0.0 0.0 0.00 0.00 0.00 64 1008.9
20260505234035 16 0 0.0 0.0 0.00 0.00 0.00 65 1008.9
20260505233531 16 0 0.0 0.0 0.00 0.00 0.00 64 1008.9
20260505233042 16 0 0.0 0.0 0.00 0.00 0.00 64 1008.8
20260505232531 16 0 0.0 0.0 0.00 0.00 0.00 64 1008.9
20260505232031 17 0 0.0 3.2 0.00 0.00 0.00 64 1009.0
20260505231552 17 0 0.0 3.2 0.00 0.00 0.00 64 1009.0
20260505231030 17 0 0.0 3.2 0.00 0.00 0.00 64 1008.8
20260505230530 17 188 0.0 3.2 0.00 0.00 0.00 62 1008.9
20260505230053 17 227 1.6 3.2 0.00 0.00 0.00 64 1008.9
20260505225533 17 236 0.0 0.0 0.00 0.00 0.00 65 1009.1
20260505225034 17 0 0.0 0.0 0.00 0.00 0.00 64 1008.7
20260505224547 17 0 0.0 3.2 0.00 0.00 0.00 65 1008.6
20260505224032 17 0 0.0 3.2 0.00 0.00 0.00 64 1008.7
20260505223532 17 210 0.0 3.2 0.00 0.00 0.00 65 1008.6
20260505223039 16 210 1.6 3.2 0.00 0.00 0.00 66 1008.6
20260505222533 16 300 0.0 3.2 0.00 0.00 0.00 65 1008.6
20260505222030 16 0 0.0 3.2 0.00 0.00 0.00 64 1008.6
20260505221545 16 0 1.6 3.2 0.00 0.00 0.00 66 1008.7
20260505221034 17 324 0.0 9.7 0.00 0.00 0.00 64 1008.8
20260505220532 17 336 1.6 9.7 0.00 0.00 0.00 64 1008.9
20260505220046 17 114 0.0 12.9 0.00 0.00 0.00 63 1009.2
20260505215530 17 300 1.6 14.5 0.00 0.00 0.00 62 1009.1
20260505215030 18 43 4.8 16.1 0.00 0.00 0.00 58 1008.9
20260505214544 20 69 6.4 16.1 0.00 0.00 0.00 55 1008.7
20260505214030 21 9 4.8 9.7 0.00 0.00 0.00 45 1008.6
20260505213529 21 248 3.2 6.4 0.00 0.00 0.00 42 1008.0
20260505213051 22 289 3.2 6.4 0.00 0.00 0.00 36 1007.9
20260505212532 22 209 1.6 4.8 0.00 0.00 0.00 36 1007.5
20260505212035 22 279 1.6 6.4 0.00 0.00 0.00 35 1007.4
20260505211539 22 292 1.6 6.4 0.00 0.00 0.00 35 1007.3
20260505211034 22 309 3.2 6.4 0.00 0.00 0.00 34 1007.1
20260505210531 22 242 3.2 8.0 0.00 0.00 0.00 34 1006.9
20260505210043 22 339 3.2 8.0 0.00 0.00 0.00 34 1006.9
20260505205533 23 283 3.2 11.3 0.00 0.00 0.00 37 1006.9
20260505205031 23 286 3.2 11.3 0.00 0.00 0.00 35 1006.9
20260505204542 23 248 3.2 12.9 0.00 0.00 0.00 34 1006.8
20260505204033 23 279 4.8 12.9 0.00 0.00 0.00 34 1006.8
20260505203530 23 267 4.8 12.9 0.00 0.00 0.00 34 1007.0
20260505203042 23 276 3.2 9.7 0.00 0.00 0.00 35 1006.9